CDT,Max TemperatureF,Mean TemperatureF,Min TemperatureF,Max Dew PointF,MeanDew PointF,Min DewpointF,Max Humidity, Mean Humidity, Min Humidity, Max Sea Level PressureIn, Mean Sea Level PressureIn, Min Sea Level PressureIn, Max VisibilityMiles, Mean VisibilityMiles, Min VisibilityMiles, Max Wind SpeedMPH, Mean Wind SpeedMPH, Max Gust SpeedMPH,PrecipitationIn, CloudCover, Events, WindDirDegrees
2013-9-1,32,28,23,27,25,23,100,89,86,29.51,29.46,29.44,15,13,2,10,7,,0.00,8,Snow,153
2013-9-2,28,24,21,25,23,19,93,89,83,29.63,29.60,29.55,15,15,15,6,2,,0.00,6,,117
2013-9-3,25,20,15,23,19,12,100,90,76,29.62,29.56,29.51,15,13,1,10,4,,0.00,4,,309
2013-9-4,28,21,14,24,21,17,93,87,79,29.55,29.47,29.38,15,14,2,10,4,,0.01,6,,280
2013-9-5,28,26,23,26,24,21,100,90,77,29.56,29.49,29.39,15,8,1,10,3,,0.08,7,Snow,190
2013-9-6,24,20,17,21,19,16,93,87,76,29.65,29.62,29.57,15,15,5,12,7,,0.00,7,Snow,223
2013-9-7,28,21,14,23,19,16,93,84,68,29.75,29.64,29.60,15,15,5,16,8,,0.00,5,,315
2013-9-8,30,26,21,27,23,19,93,85,74,29.97,29.88,29.76,15,15,15,21,10,18,0.00,3,,316
2013-9-9,27,20,10,21,18,7,93,84,71,30.08,30.04,29.98,15,15,15,21,12,24,0.00,1,,349
2013-9-10,28,18,7,21,16,5,100,80,66,30.07,29.89,29.70,15,11,0,25,8,31,0.00,4,Fog,2
2013-9-11,28,25,22,21,20,16,80,73,55,29.74,29.66,29.60,15,14,8,34,26,47,0.00,1,Snow,351
2013-9-12,28,24,20,21,19,16,86,76,62,29.89,29.83,29.73,15,14,10,26,17,32,0.00,2,,343
2013-9-13,25,20,16,19,17,14,86,81,67,29.98,29.92,29.89,15,15,15,16,8,22,0.00,5,,332
2013-9-14,14,12,8,14,9,5,86,82,68,30.16,30.08,29.99,15,15,15,8,2,,0.00,1,,90
2013-9-15,12,8,4,10,7,1,92,89,80,30.26,30.23,30.17,15,6,0,7,2,,0.00,3,Fog,112
2013-9-16,21,12,2,14,5,-1,93,87,82,30.22,30.02,29.85,10,5,0,15,1,,0.00,3,Fog-Snow,95
2013-9-17,26,18,9,23,18,12,93,86,75,29.94,29.88,29.84,15,14,6,15,5,,0.00,6,Snow,353
2013-9-18,21,16,12,19,15,10,93,87,79,29.98,29.96,29.94,15,14,7,8,3,,0.00,5,Snow,150
2013-9-19,23,18,13,21,19,17,100,91,83,29.99,29.94,29.91,15,9,3,7,3,,0.00,7,Snow,61
2013-9-20,23,20,17,19,17,14,93,87,80,30.03,30.00,29.99,15,14,6,10,4,,0.00,8,Snow,97
2013-9-21,20,18,12,19,17,10,100,90,80,30.15,30.07,30.01,15,11,3,8,4,,0.00,8,Rain-Snow,143
2013-9-22,14,12,9,13,11,7,100,95,86,30.18,30.15,30.14,15,4,0,4,1,,0.00,6,Fog-Rain,84
2013-9-23,13,10,6,12,9,5,100,92,87,30.22,30.19,30.15,15,8,1,4,0,,0.00,7,Rain-Snow,98
2013-9-24,14,10,7,14,10,5,100,93,88,30.27,30.21,30.17,15,3,0,4,1,,0.00,8,Fog-Rain-Snow,128
2013-9-25,14,11,5,14,10,3,100,92,85,30.32,30.31,30.28,10,5,0,4,2,,0.01,8,Fog-Snow,169
2013-9-26,1,0,-2,1,-2,-4,92,89,81,30.28,30.22,30.14,15,8,0,0,0,,0.00,5,Fog-Snow,-1
2013-9-27,24,12,0,21,13,-4,93,91,85,30.14,30.08,30.04,15,15,15,14,4,,0.00,6,,147
2013-9-28,22,14,5,21,16,3,100,92,84,30.14,30.11,30.05,15,15,15,6,2,,0.00,5,,218
2013-9-29,5,2,0,3,0,-2,92,86,76,30.05,29.97,29.90,15,12,0,5,1,,0.00,4,Fog-Snow,108
2013-9-30,10,6,2,9,2,-2,92,83,71,29.89,29.85,29.83,7,2,0,4,0,,0.00,5,Fog-Snow,124